Location: Central Coast
(33.3208°S, 151.2336°E)
Time: 23:03:34
(UTC+11:00)

Envisat - Pass Details

Date: 10 October 2017
Orbit: 764 x 766 km, 98.2° (Epoch: 22 October)

Event Time Altitude Azimuth Distance (km) Brightness Sun altitude
Rises 22:16:54 0° 181° (S) 3,267 6.8 -37.1°
Reaches altitude 10° 22:19:29 10° 192° (SSW) 2,332 6.0 -37.5°
Enters shadow 22:22:25 25° 222° (SW) 1,534 5.0 -38.0°
